Terug naar catalogus

PROSPERO

BLACK ARROW

ActiefWetenschapPO
NORAD 5580·PAYLOAD·🇬🇧 United Kingdom

Gelanceerd Oct 28, 1971 vanaf Woomera Range Complex

Loading…

Volgende Passages (komende 24 uur)

TLE

VersSource: Space-Track

Epoch: Sep 14, 2026, 07:28 UTC

1 05580U 71093A   26257.31141714  .00001247  00000-0  26498-3 0  9998
2 05580  82.0385 212.5899 0499882 331.7224  25.7604 14.01844152761013

Volg PROSPERO in realtime met AllMySat

Download on the App Store